Location: Couloutre
(47.4081°N, 3.2259°E)
Time: 00:28:46
(UTC+00:00)

Cosmos 405 - Pass Details

Date: 27 February 2020
Orbit: 451 x 465 km, 81.3° (Epoch: 09 April)

Event Time Altitude Azimuth Distance (km) Brightness Sun altitude
Rises 18:46:47 0° 347° (NNW) 2,508 6.9 -14.1°
Reaches altitude 10° 18:48:53 10° 345° (NNW) 1,629 6.0 -14.4°
Maximum altitude 18:52:26 72° 261° (W) 495 3.2 -15.0°
Drops below altitude 10° 18:55:57 10° 177° (S) 1,618 5.6 -15.6°
Sets 18:58:02 0° 175° (S) 2,489 6.6 -15.9°
